SL-16 DEB, 22456

Orbit data source: Space-Track

SL-16 DEB, 22456 is space debris in LEO originally from a launch on Fri, 25 Dec 1992 UTC launched from the Tyuratam Missile And Space Complex (TTMTR). Debris objects in space refer to the collection of defunct objects orbiting the Earth. Examples of debris include non-operational satellites, rocket bodies, and fragments generated from explosions, collisions, or faulty payload assembly.

Loading next visibility...
Identifier
22456, 1992-093EV
Orbit
LEO
Country
Flag of CISCIS
Related business
Manufacturer
Unknown
Mission
Spacecraft
Bus & Motor
Unknown
Mass
Unknown
Launch date (UTC)
1992-12-25 (33 years ago)
Launch vehicle
Unknown
Launch site
Tyuratam Missile And Space Complex (TTMTR)
Object type
Payload
Rocket body
Debris
Shape & HBR
Unknown shape, 0.1 m
Radar Cross Section
Medium (>0.1 m² and <1 m²)

Expand to show TLE details & history
Last TLE update: 3 days ago

TLE from 3 days ago
0 SL-16 DEB
1 22456U 92093EV  26171.31436883  .00017320  00000-0  27695-2 0  9999
2 22456  71.2278 119.6558 0050403 310.5676 202.5053 14.70980643715285
Epoch: 2026-06-20T07:32Z
TLE epoch observation values (Epoch: 2026-06-20T07:32:41.466Z)
Latitude
25.63651°
Longitude
-91.38445°
Altitude
693.39 km
Speed
7.495 km/s
True Right ascension
19h 21m 16s
True Declination
25° 30' 05"
Sunlit
Object was in full shadow at epoch
Visualization orbit readout
Latitude
Unknown
Longitude
Unknown
Altitude
Unknown
Speed
Unknown
Apparent Right ascension
Unknown
Apparent Declination
Unknown
Sunlit
N/A
Visualization observer readout
Local Sidereal Time
07:10:41
Azimuth
Unknown
Elevation
Unknown
Doppler factor
Unknown
Orbital elements
Apogee altitude
691.24 km
Perigee altitude
620.334 km
Semi-major axis
7,033.924 km
Eccentricity
0.00504
Inclination
71.2278°
RAAN
119.6558°
Arg. of periapsis
310.5676°
True anomaly
202.2855°
Mean anomaly
202.5053°
Eccentric anomaly
202.39527°
Mean motion
3.67914 °/min
Orbital period
97.85 mins
BSTAR
0.0027695
Loading maneuver chart data...
Computing Atmospheric mass density...
Loading historical data...
Loading historical data...
Loading historical data...
Loading historical data...
Loading historical data...
Loading historical data...
Loading historical data...

Documentation

Showing up to 5 results
|